[[{"header":{"parameterUnit":"m.s-1","parameterCategory":1,"la1":30.2991,"la2":30.254,"lo1":-89.0895,"lo2":-89.0444,"dy":0.0017,"dx":0.0017,"nx":28,"ny":28,"refTime":"2024-12-07T09:00:00:Z","depth":0,"parameterNumber":2,"parameterNumberName":"U-component_of_WINDS"},"data":[0,0,0,0,0,0,0,0,0,0,0,0,0,0,0,0,0,0,0,0,0,0,0,0,0,0,0,0,0,0,0,0,0,0,0,0,0,0,0,0,0,0,0,0,0,0,0,0,0,0,0,0,0,0,0,0,0,0,-3.6847,-3.6847,0,-3.685,-3.685,-3.685,-3.6748,-3.6745,-3.6742,-3.674,-3.6744,-3.6747,-3.6749,0,0,0,0,0,0,0,0,0,0,0,0,0,-3.6754,-3.6757,-3.6847,-3.6847,-3.6847,-3.685,-3.685,-3.685,-3.6748,-3.6745,-3.6741,-3.6738,-3.6743,-3.6746,-3.675,0,0,0,0,0,0,0,0,0,0,0,0,0,-3.678,-3.6757,-3.6847,-3.6796,-3.6792,-3.685,-3.685,-3.685,-3.6749,-3.6745,-3.6741,-3.6737,-3.6742,-3.6746,-3.675,-3.6857,0,0,-3.6762,-3.6764,0,0,0,0,0,0,0,0,-3.6778,-3.6783,-3.6804,-3.68,-3.6795,-3.6794,-3.6819,-3.6852,-3.675,-3.6765,-3.674,-3.6735,-3.6764,-3.6766,-3.6776,-3.6857,-3.6857,-3.6763,-3.6765,-3.6767,-3.6768,0,0,0,0,0,0,0,-3.6777,-3.6783,-3.6848,-3.6804,-3.6799,-3.6774,-3.6773,-3.6825,-3.6788,-3.6764,-3.6756,-3.6758,-3.6761,-3.6772,-3.6775,-3.6857,-3.6763,-3.6766,-3.6769,-3.677,-3.7027,-3.7031,0,0,0,0,0,0,-3.6782,-3.6782,-3.6848,-3.6848,-3.6776,-3.6779,-3.6778,-3.6799,-3.6787,-3.6781,-3.6761,-3.6753,-3.6767,-3.6771,-3.6775,-3.69,-3.6767,-3.6771,-3.6773,-3.7023,-3.7028,-3.7033,0,0,0,0,0,0,-3.678,-3.6789,-3.6848,-3.6813,-3.6818,-3.6785,-3.6809,-3.6801,-3.6812,-3.6785,-3.6778,-3.6779,-3.6764,-3.6769,-3.6837,-3.6899,-3.6772,-3.6776,-3.7017,-3.7024,-3.703,-3.7151,0,0,0,0,0,0,-3.6778,-3.6789,-3.6828,-3.6814,-3.6821,-3.691,-3.6813,-3.6804,-3.6819,-3.6808,-3.68,-3.6795,-3.6761,-3.6832,-3.6841,-3.6902,-3.6779,-3.7012,-3.702,-3.7028,-3.7141,-3.7161,-3.7177,0,0,0,0,0,-3.6775,-3.6862,-3.6831,-3.684,-3.687,-3.6914,-3.6917,-3.6876,-3.6824,-3.6864,-3.6847,-3.6795,-3.689,-3.684,-3.6849,-3.6912,-3.7008,-3.7018,-3.7028,-3.7133,-3.7157,-3.7177,0,0,0,0,0,0,-3.6885,-3.6859,-3.6825,-3.691,-3.6915,-3.6896,-3.6946,-3.6903,-3.6923,-3.6912,-3.6861,-3.686,-3.6937,-3.6931,-3.6875,-3.7015,-3.694,-3.6952,-3.7017,-3.7039,-3.7057,-3.7057,-3.6782,0,0,0,0,0,-3.6919,-3.6956,-3.6932,-3.701,-3.7014,-3.698,-3.6997,-3.6965,-3.6968,-3.697,-3.6958,-3.6963,-3.6994,-3.7016,-3.7043,-3.7139,-3.7137,-3.7187,-3.7205,-3.722,-3.7232,-3.7284,-3.7307,-3.7066,-3.7065,-3.7065,0,0,-3.699,-3.698,-3.7007,-3.7032,-3.7031,-3.7072,-3.6982,-3.7028,-3.7058,-3.6977,-3.7041,-3.7032,-3.7035,-3.7118,-3.7154,-3.7116,-3.7298,-3.7233,-3.7245,-3.7249,-3.7297,-3.732,-3.734,-3.7072,-3.7071,-3.707,0,0,-3.714,-3.7136,-3.7201,-3.7203,-3.7204,-3.7181,-3.7196,-3.7185,-3.7176,-3.7239,-3.7179,-3.7214,-3.7268,-3.7273,-3.7282,-3.7435,-3.7389,-3.7445,-3.7541,-3.7592,-3.7611,-3.7628,-3.7684,-3.7704,-3.7457,-3.7457,-3.7457,0,-3.7228,-3.7287,-3.724,-3.7291,-3.7304,-3.7231,-3.7298,-3.7301,-3.7312,-3.7323,-3.7279,-3.7346,-3.7343,-3.7427,-3.7464,-3.7474,-3.7491,-3.7447,-3.7612,-3.7628,-3.7643,-3.7696,-3.7717,-3.7464,-3.7463,-3.7463,-3.7462,0,-3.7396,-3.7438,-3.749,-3.7502,-3.752,-3.7578,-3.7541,-3.7566,-3.7532,-3.7514,-3.7579,-3.7573,-3.7598,-3.7615,-3.7582,-3.7695,-3.7671,-3.7621,-3.7544,-3.7674,-3.7723,-3.7743,-3.7474,-3.7472,-3.7469,-3.7468,0,0,-3.7617,-3.7602,-3.7622,-3.7627,-3.7623,-3.7654,-3.7709,-3.7733,-3.7756,-3.7765,-3.7811,-3.7859,-3.7812,-3.7823,-3.7791,-3.7836,-3.7959,-3.7779,-3.7779,-3.7815,-3.8085,-3.8124,-3.8148,-3.7927,-3.7931,-3.7934,-3.8085,0,-3.7764,-3.7858,-3.7817,-3.7915,-3.7954,-3.7885,-3.7933,-3.7937,-3.7921,-3.7952,-3.7934,-3.7969,-3.7904,-3.7911,-3.7952,-3.7936,-3.8013,-3.7924,-3.7971,-3.7974,-3.7975,-3.8174,-3.8215,-3.8358,-3.8104,-3.8107,-3.8109,0,-3.7949,-3.7966,-3.8068,-3.8058,-3.8072,-3.8116,-3.8136,-3.8165,-3.8168,-3.8153,-3.8166,-3.8123,-3.8177,-3.81,-3.8175,-3.8115,-3.8132,-3.8127,-3.8132,-3.8136,-3.8051,-3.8186,-3.8403,-3.8425,-3.8138,-3.8136,-3.8134,0,-3.8102,-3.8151,-3.8218,-3.8224,-3.8213,-3.8246,-3.8243,-3.8241,-3.8259,-3.8275,-3.8287,-3.831,-3.8323,-3.8342,-3.8307,-3.8254,-3.8388,-3.8307,-3.8379,-3.838,-3.8412,-3.841,-3.8637,-3.8419,-3.8419,-3.8419,-3.8418,0,-3.8272,-3.8338,-3.8287,-3.8329,-3.84,-3.8353,-3.8425,-3.8415,-3.8414,-3.8453,-3.8395,-3.8433,-3.8384,-3.8417,-3.839,-3.8457,-3.8463,-3.8454,-3.8446,-3.846,-3.8462,-3.8472,-3.8462,-3.8424,-3.8423,-3.8422,-3.8421,0,-3.8457,-3.8425,-3.8494,-3.8478,-3.8476,-3.8529,-3.8516,-3.8554,-3.8534,-3.8585,-3.8594,-3.8562,-3.8599,-3.8566,-3.86,-3.8582,-3.8673,-3.8649,-3.8672,-3.8666,-3.8741,-3.8735,-3.8983,-3.9014,-3.8775,-3.8778,-3.878,0,-3.8568,-3.8617,-3.8606,-3.8628,-3.8629,-3.8665,-3.8682,-3.8638,-3.8658,-3.8665,-3.8703,-3.8735,-3.8758,-3.8819,-3.8801,-3.8827,-3.8806,-3.8891,-3.8809,-3.8823,-3.8809,-3.8808,-3.8813,-3.8908,-3.8911,-3.8913,-3.8915,0,-3.8771,-3.8753,-3.878,-3.8802,-3.8825,-3.884,-3.8851,-3.8872,-3.8826,-3.8853,-3.8889,-3.8907,-3.8943,-3.8975,-3.8996,-3.8993,-3.8948,-3.894,-3.8959,-3.8975,-3.8987,-3.8983,-3.8719,-3.8935,-3.8933,-3.8932,-3.8931,-3.893,-3.8923,-3.8964,-3.8963,-3.8996,-3.8999,-3.9011,-3.9046,-3.9031,-3.906,-3.9086,-3.9057,-3.9103,-3.9104,-3.9127,-3.913,-3.9165,-3.913,-3.9156,-3.9163,-3.9171,-3.9183,-3.8979,-3.9169,-3.9168,-3.9167,-3.9167,-3.9166,0,-3.9124,-3.912,-3.915,-3.9168,-3.9194,-3.9147,-3.9156,-3.9182,-3.9222,-3.9227,-3.9251,-3.9294,-3.9325,-3.9308,-3.9336,-3.9367,-3.9347,-3.9376,-3.9375,-3.9375,-3.9212,-3.9194,-3.9392,-3.9392,-3.9392,-3.9392,-3.9392,-3.9392,-3.9232,-3.9299,-3.9281,-3.9349,-3.9344,-3.9388,-3.9398,-3.9409,-3.9413,-3.9463,-3.9489,-3.9477,-3.9474,-3.9501,-3.9528,-3.9522,-3.9536,-3.9573,-3.9561,-3.9409,-3.9387,-3.9365,-3.9349,-3.9576,-3.9577,-3.9721,-3.9723,-3.9724]},{"header":{"parameterUnit":"m.s-1","parameterCategory":1,"la1":30.2991,"la2":30.254,"lo1":-89.0895,"lo2":-89.0444,"dy":0.0017,"dx":0.0017,"nx":28,"ny":28,"refTime":"2024-12-07T09:00:00:Z","depth":0,"parameterNumber":3,"parameterNumberName":"V-component_of_WINDS"},"data":[0,0,0,0,0,0,0,0,0,0,0,0,0,0,0,0,0,0,0,0,0,0,0,0,0,0,0,0,0,0,0,0,0,0,0,0,0,0,0,0,0,0,0,0,0,0,0,0,0,0,0,0,0,0,0,0,0,0,-1.7012,-1.7012,0,-1.704,-1.704,-1.704,-1.7008,-1.7007,-1.7005,-1.7004,-1.7033,-1.7035,-1.7036,0,0,0,0,0,0,0,0,0,0,0,0,0,-1.6929,-1.693,-1.7012,-1.7012,-1.7012,-1.704,-1.704,-1.704,-1.7008,-1.7007,-1.7005,-1.7004,-1.7032,-1.7034,-1.7037,0,0,0,0,0,0,0,0,0,0,0,0,0,-1.6961,-1.6931,-1.7012,-1.7,-1.6999,-1.704,-1.704,-1.7041,-1.7008,-1.7007,-1.7005,-1.7003,-1.7031,-1.7034,-1.7037,-1.7091,0,0,-1.7046,-1.7047,0,0,0,0,0,0,0,0,-1.696,-1.6965,-1.7001,-1.7,-1.7,-1.7018,-1.7021,-1.7057,-1.7009,-1.7005,-1.7004,-1.7002,-1.7029,-1.7032,-1.7042,-1.7092,-1.7093,-1.7046,-1.7047,-1.7049,-1.705,0,0,0,0,0,0,0,-1.6957,-1.6963,-1.7023,-1.7001,-1.7001,-1.6992,-1.6995,-1.7028,-1.7027,-1.7005,-1.7003,-1.7006,-1.7029,-1.7039,-1.7042,-1.7094,-1.7046,-1.7048,-1.705,-1.7051,-1.719,-1.7191,0,0,0,0,0,0,-1.6957,-1.6961,-1.7022,-1.7024,-1.6975,-1.6995,-1.6998,-1.7014,-1.7026,-1.7027,-1.7008,-1.7005,-1.7035,-1.7039,-1.7043,-1.7107,-1.7049,-1.7051,-1.7053,-1.7188,-1.719,-1.7192,0,0,0,0,0,0,-1.6955,-1.6962,-1.7021,-1.6992,-1.6999,-1.6999,-1.7017,-1.7016,-1.7026,-1.7029,-1.7028,-1.7019,-1.7034,-1.7039,-1.7079,-1.7108,-1.7053,-1.7055,-1.7185,-1.7188,-1.7191,-1.7236,0,0,0,0,0,0,-1.6953,-1.6962,-1.6983,-1.6993,-1.7,-1.7057,-1.7019,-1.7018,-1.7031,-1.7027,-1.7039,-1.7039,-1.7033,-1.7075,-1.7082,-1.711,-1.7057,-1.7183,-1.7187,-1.719,-1.7232,-1.724,-1.7247,0,0,0,0,0,-1.695,-1.6994,-1.6984,-1.6992,-1.7027,-1.7059,-1.7063,-1.7055,-1.7033,-1.7054,-1.7056,-1.7039,-1.7103,-1.7079,-1.7087,-1.7117,-1.7181,-1.7186,-1.719,-1.7228,-1.7238,-1.7247,0,0,0,0,0,0,-1.6988,-1.6996,-1.6984,-1.7033,-1.7046,-1.7053,-1.708,-1.7066,-1.7085,-1.708,-1.7069,-1.7072,-1.7115,-1.7119,-1.7093,-1.7169,-1.7138,-1.7144,-1.7165,-1.7175,-1.7182,-1.7181,-1.706,0,0,0,0,0,-1.7002,-1.7028,-1.7033,-1.7076,-1.7083,-1.708,-1.7094,-1.7086,-1.7099,-1.7104,-1.7108,-1.7121,-1.7143,-1.7159,-1.718,-1.7232,-1.7234,-1.7256,-1.7263,-1.7269,-1.7275,-1.7303,-1.7313,-1.7207,-1.7207,-1.7207,0,0,-1.7032,-1.7039,-1.7056,-1.7084,-1.7092,-1.7119,-1.7085,-1.7115,-1.7134,-1.7108,-1.7147,-1.715,-1.7163,-1.7209,-1.723,-1.7214,-1.7305,-1.7275,-1.728,-1.7283,-1.7308,-1.7318,-1.7327,-1.721,-1.7209,-1.7209,0,0,-1.71,-1.7108,-1.7144,-1.7154,-1.7167,-1.7165,-1.7174,-1.7183,-1.7184,-1.7223,-1.7204,-1.7226,-1.7266,-1.7276,-1.7286,-1.7356,-1.7341,-1.7363,-1.7404,-1.743,-1.7439,-1.7446,-1.7471,-1.7481,-1.7369,-1.7369,-1.7369,0,-1.7135,-1.7175,-1.7165,-1.7196,-1.7209,-1.7186,-1.7222,-1.7232,-1.7251,-1.726,-1.7242,-1.7292,-1.7299,-1.7347,-1.7364,-1.7373,-1.7382,-1.7363,-1.7438,-1.7446,-1.7452,-1.7476,-1.7486,-1.7372,-1.7372,-1.7371,-1.7371,0,-1.7218,-1.7246,-1.7273,-1.7293,-1.7308,-1.7342,-1.7337,-1.7353,-1.7344,-1.7343,-1.7382,-1.739,-1.7412,-1.7422,-1.7414,-1.7469,-1.7459,-1.744,-1.7409,-1.7465,-1.7488,-1.7497,-1.7376,-1.7375,-1.7374,-1.7373,0,0,-1.7313,-1.7325,-1.7336,-1.7344,-1.7357,-1.7378,-1.741,-1.7432,-1.7446,-1.746,-1.7487,-1.752,-1.7502,-1.7514,-1.7506,-1.7529,-1.7584,-1.7507,-1.7507,-1.7522,-1.7646,-1.7661,-1.7672,-1.7574,-1.7575,-1.7577,-1.7645,0,-1.7381,-1.7438,-1.7429,-1.7483,-1.7509,-1.7486,-1.7514,-1.7525,-1.7524,-1.7546,-1.7545,-1.7569,-1.7543,-1.755,-1.7572,-1.7573,-1.7609,-1.7568,-1.7599,-1.76,-1.7598,-1.7684,-1.77,-1.7765,-1.7654,-1.7655,-1.7656,0,-1.7469,-1.7487,-1.7544,-1.7552,-1.7562,-1.7587,-1.7606,-1.7626,-1.7637,-1.7635,-1.7648,-1.7635,-1.7667,-1.7634,-1.7677,-1.7649,-1.7661,-1.7663,-1.7665,-1.7669,-1.7633,-1.7691,-1.7785,-1.7795,-1.767,-1.7669,-1.7668,0,-1.7534,-1.7571,-1.761,-1.7617,-1.7627,-1.7646,-1.7651,-1.766,-1.7673,-1.7689,-1.7698,-1.7717,-1.7728,-1.7743,-1.7736,-1.7712,-1.778,-1.7747,-1.778,-1.778,-1.7797,-1.7796,-1.7895,-1.7802,-1.7802,-1.7802,-1.7802,0,-1.7612,-1.7648,-1.7639,-1.7663,-1.7702,-1.7691,-1.773,-1.7732,-1.774,-1.7763,-1.7745,-1.7767,-1.7755,-1.7777,-1.7771,-1.7808,-1.7813,-1.7812,-1.7811,-1.7815,-1.7815,-1.7823,-1.7819,-1.7804,-1.7804,-1.7803,-1.7803,0,-1.7691,-1.7686,-1.7728,-1.7733,-1.7735,-1.7764,-1.7769,-1.7791,-1.7789,-1.7819,-1.7825,-1.7822,-1.7846,-1.784,-1.7866,-1.7862,-1.7909,-1.7901,-1.7906,-1.7904,-1.7938,-1.7935,-1.8047,-1.8061,-1.7958,-1.7959,-1.796,0,-1.7743,-1.777,-1.7778,-1.7793,-1.7799,-1.7823,-1.7836,-1.7825,-1.784,-1.7854,-1.7874,-1.7897,-1.7914,-1.7954,-1.7954,-1.7973,-1.7966,-1.8004,-1.7969,-1.7973,-1.7968,-1.7967,-1.797,-1.8012,-1.8013,-1.8014,-1.8015,0,-1.7834,-1.783,-1.785,-1.7869,-1.7886,-1.79,-1.7913,-1.7926,-1.7916,-1.7933,-1.7958,-1.7971,-1.7998,-1.8021,-1.8038,-1.8043,-1.8027,-1.8025,-1.8034,-1.8039,-1.8041,-1.8041,-1.7926,-1.8023,-1.8022,-1.8022,-1.8021,-1.8021,-1.7901,-1.7924,-1.7934,-1.7957,-1.7965,-1.7977,-1.7998,-1.7998,-1.8019,-1.804,-1.8031,-1.806,-1.8069,-1.8091,-1.8098,-1.8119,-1.8105,-1.8118,-1.8121,-1.8125,-1.8129,-1.8037,-1.8122,-1.8122,-1.8122,-1.8122,-1.8121,0,-1.7992,-1.7997,-1.8018,-1.8037,-1.8054,-1.8037,-1.805,-1.8066,-1.8091,-1.8101,-1.8119,-1.8147,-1.8168,-1.8169,-1.8189,-1.8206,-1.8199,-1.8212,-1.8211,-1.8212,-1.8141,-1.8131,-1.8217,-1.8217,-1.8217,-1.8217,-1.8217,-1.8217,-1.8042,-1.808,-1.8077,-1.8118,-1.8122,-1.815,-1.8159,-1.817,-1.8178,-1.821,-1.8228,-1.8228,-1.8234,-1.8254,-1.8273,-1.8272,-1.8281,-1.8296,-1.8293,-1.8227,-1.8217,-1.8208,-1.82,-1.8298,-1.8298,-1.8363,-1.8364,-1.8364]}]]